• In Deutschland
  • Länderverzeichnis
  • Für 7 Tage
  • Wassertemperatur
  • Satellitenkarten
  • Wetterkarte
  • Widgets
  • user-avatar
    Anmelden

    Stündliche Wetter Sherpur

    Heute, 11 Dezember, Montag

    Zeit Temperatur Niederschläge Wind Luftdruck Luftfeuchtigkeit
    00:00 +2°C° 0 mm 2 m/S 606 mmHg 20%
    01:00 +1°C° 0 mm 2 m/S 606 mmHg 21%
    02:00 +1°C° 0 mm 2 m/S 606 mmHg 22%
    03:00 +1°C° 0 mm 2 m/S 605 mmHg 24%
    04:00 -1°C° 0 mm 2 m/S 605 mmHg 25%
    05:00 -1°C° 0 mm 2 m/S 605 mmHg 31%
    06:00 -1°C° 0 mm 2 m/S 605 mmHg 33%
    07:00 -1°C° 0 mm 2 m/S 605 mmHg 34%
    08:00 -1°C° 0 mm 2 m/S 605 mmHg 35%
    09:00 +1°C° 0 mm 2 m/S 606 mmHg 34%
    10:00 +2°C° 0 mm 2 m/S 606 mmHg 32%
    11:00 +4°C° 0 mm 2 m/S 606 mmHg 32%
    12:00 +4°C° 0 mm 2 m/S 606 mmHg 33%
    13:00 +5°C° 0 mm 2 m/S 605 mmHg 33%
    14:00 +5°C° 0 mm 2 m/S 605 mmHg 34%
    15:00 +5°C° 0 mm 2 m/S 604 mmHg 35%
    16:00 +5°C° 0 mm 1 m/S 604 mmHg 37%
    17:00 +5°C° 0 mm 1 m/S 604 mmHg 38%
    18:00 +4°C° 0 mm 1 m/S 604 mmHg 40%
    19:00 +3°C° 0 mm 1 m/S 604 mmHg 43%
    20:00 +2°C° 0 mm 1 m/S 604 mmHg 45%
    21:00 +2°C° 0 mm 1 m/S 604 mmHg 45%
    22:00 +1°C° 0 mm 1 m/S 604 mmHg 45%
    23:00 +1°C° 0 mm 1 m/S 604 mmHg 45%

    Morgen, 12 Dezember, Dienstag

    Zeit Temperatur Niederschläge Wind Luftdruck Luftfeuchtigkeit
    00:00 -1°C° 0 mm 2 m/S 604 mmHg 45%
    01:00 -1°C° 0 mm 2 m/S 604 mmHg 45%
    02:00 -2°C° 0 mm 2 m/S 603 mmHg 44%
    03:00 -2°C° 0 mm 2 m/S 603 mmHg 45%
    04:00 -2°C° 0 mm 2 m/S 603 mmHg 45%
    05:00 -3°C° 0 mm 2 m/S 603 mmHg 45%
    06:00 -3°C° 0 mm 2 m/S 604 mmHg 44%
    07:00 -3°C° 0 mm 2 m/S 604 mmHg 44%
    08:00 -2°C° 0 mm 2 m/S 604 mmHg 43%
    09:00 -1°C° 0 mm 2 m/S 605 mmHg 38%
    10:00 +2°C° 0 mm 2 m/S 606 mmHg 34%
    11:00 +3°C° 0 mm 2 m/S 607 mmHg 29%
    12:00 +4°C° 0 mm 2 m/S 606 mmHg 28%
    13:00 +4°C° 0 mm 2 m/S 606 mmHg 27%
    14:00 +5°C° 0 mm 2 m/S 606 mmHg 26%
    15:00 +4°C° 0 mm 2 m/S 606 mmHg 28%
    16:00 +3°C° 0 mm 2 m/S 606 mmHg 30%
    17:00 +3°C° 0 mm 2 m/S 606 mmHg 32%
    18:00 +2°C° 0 mm 2 m/S 606 mmHg 35%
    19:00 +2°C° 0 mm 1 m/S 607 mmHg 38%
    20:00 +1°C° 0 mm 1 m/S 607 mmHg 41%
    21:00 0°C° 0 mm 1 m/S 607 mmHg 42%
    22:00 0°C° 0 mm 1 m/S 607 mmHg 43%
    23:00 -1°C° 0 mm 1 m/S 607 mmHg 45%

    übermorgen, 13 Dezember, Mittwoch

    Zeit Temperatur Niederschläge Wind Luftdruck Luftfeuchtigkeit
    00:00 -1°C° 0 mm 1 m/S 607 mmHg 46%
    01:00 -1°C° 0 mm 1 m/S 606 mmHg 46%
    02:00 -2°C° 0 mm 1 m/S 606 mmHg 47%
    03:00 -2°C° 0 mm 1 m/S 606 mmHg 46%
    04:00 -2°C° 0 mm 1 m/S 606 mmHg 45%
    05:00 -3°C° 0 mm 1 m/S 606 mmHg 44%
    06:00 -3°C° 0 mm 1 m/S 606 mmHg 41%
    07:00 -3°C° 0 mm 1 m/S 606 mmHg 38%
    08:00 -2°C° 0 mm 1 m/S 607 mmHg 36%
    09:00 -1°C° 0 mm 1 m/S 607 mmHg 32%
    10:00 0°C° 0 mm 1 m/S 607 mmHg 29%
    11:00 +1°C° 0 mm 1 m/S 608 mmHg 26%
    12:00 +1°C° 0 mm 2 m/S 607 mmHg 27%
    13:00 +1°C° 0 mm 2 m/S 607 mmHg 29%
    14:00 +1°C° 0 mm 2 m/S 606 mmHg 30%
    15:00 +1°C° 0 mm 2 m/S 606 mmHg 32%
    16:00 -1°C° 0 mm 2 m/S 606 mmHg 34%
    17:00 -1°C° 0 mm 2 m/S 606 mmHg 37%
    18:00 -2°C° 0 mm 2 m/S 606 mmHg 38%
    19:00 0°C° 0 mm 1 m/S 606 mmHg 39%
    20:00 -1°C° 0 mm 1 m/S 606 mmHg 40%
    21:00 -1°C° 0 mm 1 m/S 606 mmHg 41%
    22:00 -2°C° 0 mm 1 m/S 606 mmHg 42%
    23:00 -2°C° 0 mm 1 m/S 606 mmHg 43%

    14 Dezember, Donnerstag

    Zeit Temperatur Niederschläge Wind Luftdruck Luftfeuchtigkeit
    00:00 -2°C° 0 mm 1 m/S 606 mmHg 44%
    01:00 -3°C° 0 mm 1 m/S 606 mmHg 46%
    02:00 -3°C° 0 mm 1 m/S 606 mmHg 47%
    03:00 -3°C° 0 mm 1 m/S 605 mmHg 48%
    04:00 -4°C° 0 mm 1 m/S 605 mmHg 50%
    05:00 -4°C° 0 mm 1 m/S 605 mmHg 51%
    06:00 -4°C° 0 mm 1 m/S 606 mmHg 51%
    07:00 -4°C° 0 mm 1 m/S 606 mmHg 51%
    08:00 -4°C° 0 mm 1 m/S 606 mmHg 51%
    09:00 -5°C° 0 mm 2 m/S 607 mmHg 49%
    10:00 -4°C° 0 mm 2 m/S 607 mmHg 47%
    11:00 -3°C° 0 mm 2 m/S 608 mmHg 45%
    12:00 -3°C° 0 mm 2 m/S 608 mmHg 46%
    13:00 -3°C° 0 mm 2 m/S 608 mmHg 46%
    14:00 -3°C° 0 mm 2 m/S 607 mmHg 47%
    15:00 -3°C° 0 mm 2 m/S 607 mmHg 48%
    16:00 -3°C° 0 mm 2 m/S 607 mmHg 50%
    17:00 -4°C° 0 mm 2 m/S 607 mmHg 51%
    18:00 -4°C° 0 mm 2 m/S 608 mmHg 52%
    19:00 -4°C° 0 mm 2 m/S 608 mmHg 52%
    20:00 -2°C° 0 mm 1 m/S 608 mmHg 52%
    21:00 -3°C° 0 mm 1 m/S 608 mmHg 53%
    22:00 -3°C° 0 mm 1 m/S 608 mmHg 54%
    23:00 -4°C° 0 mm 1 m/S 608 mmHg 55%

    15 Dezember, Freitag

    Zeit Temperatur Niederschläge Wind Luftdruck Luftfeuchtigkeit
    00:00 -4°C° 0 mm 1 m/S 608 mmHg 55%
    01:00 -4°C° 0 mm 1 m/S 608 mmHg 56%
    02:00 -6°C° 0 mm 1 m/S 607 mmHg 56%
    03:00 -6°C° 0 mm 1 m/S 607 mmHg 56%
    04:00 -6°C° 0 mm 1 m/S 607 mmHg 56%
    05:00 -6°C° 0 mm 1 m/S 607 mmHg 56%
    06:00 -6°C° 0 mm 1 m/S 608 mmHg 54%
    07:00 -6°C° 0 mm 1 m/S 608 mmHg 53%
    08:00 -6°C° 0 mm 1 m/S 609 mmHg 51%
    09:00 -4°C° 0 mm 1 m/S 609 mmHg 45%
    10:00 -2°C° 0 mm 1 m/S 610 mmHg 40%
    11:00 -1°C° 0 mm 1 m/S 610 mmHg 34%
    12:00 -2°C° 0 mm 2 m/S 610 mmHg 33%
    13:00 -2°C° 0 mm 2 m/S 610 mmHg 31%
    14:00 -1°C° 0 mm 2 m/S 610 mmHg 29%
    15:00 -1°C° 0 mm 2 m/S 610 mmHg 31%
    16:00 -2°C° 0 mm 2 m/S 610 mmHg 32%
    17:00 -2°C° 0 mm 2 m/S 610 mmHg 33%
    18:00 -1°C° 0 mm 1 m/S 610 mmHg 34%
    19:00 -2°C° 0 mm 1 m/S 610 mmHg 35%
    20:00 -2°C° 0 mm 1 m/S 611 mmHg 37%
    21:00 -2°C° 0 mm 1 m/S 610 mmHg 37%
    22:00 -2°C° 0 mm 1 m/S 610 mmHg 37%
    23:00 -3°C° 0 mm 1 m/S 610 mmHg 37%

    16 Dezember, Samstag

    Zeit Temperatur Niederschläge Wind Luftdruck Luftfeuchtigkeit
    00:00 -3°C° 0 mm 1 m/S 610 mmHg 38%
    01:00 -3°C° 0 mm 1 m/S 610 mmHg 38%
    02:00 -3°C° 0 mm 1 m/S 609 mmHg 39%
    03:00 -3°C° 0 mm 1 m/S 609 mmHg 40%
    04:00 -3°C° 0 mm 1 m/S 609 mmHg 41%
    05:00 -3°C° 0 mm 1 m/S 609 mmHg 42%
    06:00 -3°C° 0 mm 1 m/S 609 mmHg 41%
    07:00 -3°C° 0 mm 1 m/S 609 mmHg 40%
    08:00 -2°C° 0 mm 1 m/S 610 mmHg 40%
    09:00 -1°C° 0 mm 1 m/S 610 mmHg 36%
    10:00 +1°C° 0 mm 1 m/S 611 mmHg 32%
    11:00 +3°C° 0 mm 1 m/S 611 mmHg 28%
    12:00 +4°C° 0 mm 1 m/S 611 mmHg 27%
    13:00 +4°C° 0 mm 1 m/S 610 mmHg 27%
    14:00 +5°C° 0 mm 1 m/S 610 mmHg 26%
    15:00 +4°C° 0 mm 1 m/S 610 mmHg 28%
    16:00 +4°C° 0 mm 1 m/S 610 mmHg 30%
    17:00 +3°C° 0 mm 1 m/S 610 mmHg 32%
    18:00 +2°C° 0 mm 1 m/S 610 mmHg 34%
    19:00 +2°C° 0 mm 1 m/S 610 mmHg 35%
    20:00 +1°C° 0 mm 1 m/S 610 mmHg 37%
    21:00 +1°C° 0 mm 1 m/S 610 mmHg 38%
    22:00 0°C° 0 mm 1 m/S 610 mmHg 39%
    23:00 0°C° 0 mm 1 m/S 610 mmHg 40%
    Mehr zeigen